DHK111 ENBR-BIKF

Flight info

Callsign DHK111
Flight time N/A
Altitude 34000
Route REKLI DCT VALDI/M081F340 DCT ING DCT NASBU NASBU5N
Aircraft B77L/H-SDE1E2E3FGHIJ2J3J4J5M1RWXY/LB1D1

Departure

Time 2026-05-06 17:41
Airport Bergen Airport, Flesland (ENBR)

Arrival

Time N/A
Airport Keflavik International Airport (BIKF)
Time Latitude Longitude Altitude Speed Heading
2026-05-06 17:14 60.28569 5.22650 163 ft 0 kts 80°
2026-05-06 17:28 60.28567 5.22623 163 ft 2 kts 78°
2026-05-06 17:29 60.28563 5.22591 163 ft 2 kts 73°
2026-05-06 17:29 60.28557 5.22559 163 ft 2 kts 60°
2026-05-06 17:29 60.28546 5.22534 163 ft 2 kts 17°
2026-05-06 17:29 60.28531 5.22533 163 ft 1 kts 348°
2026-05-06 17:30 60.28528 5.22534 163 ft 0 kts 348°
2026-05-06 17:33 60.28588 5.22510 163 ft 19 kts 351°
2026-05-06 17:33 60.28697 5.22390 164 ft 9 kts 307°
2026-05-06 17:34 60.28715 5.22367 164 ft 8 kts 333°
2026-05-06 17:34 60.28776 5.22336 165 ft 9 kts 348°
2026-05-06 17:34 60.28851 5.22305 165 ft 12 kts 349°
2026-05-06 17:34 60.28933 5.22270 166 ft 12 kts 351°
2026-05-06 17:35 60.29040 5.22239 167 ft 21 kts 352°
2026-05-06 17:35 60.29204 5.22184 168 ft 24 kts 350°
2026-05-06 17:35 60.29405 5.22116 170 ft 31 kts 350°
2026-05-06 17:36 60.29481 5.22090 171 ft 6 kts 350°
2026-05-06 17:36 60.29584 5.22056 172 ft 18 kts 351°
2026-05-06 17:36 60.29746 5.22002 173 ft 27 kts 350°
2026-05-06 17:36 60.29932 5.21938 175 ft 27 kts 351°
2026-05-06 17:37 60.30117 5.21874 176 ft 27 kts 351°
2026-05-06 17:37 60.30302 5.21815 178 ft 27 kts 350°
2026-05-06 17:37 60.30487 5.21751 180 ft 27 kts 351°
2026-05-06 17:37 60.30580 5.21720 180 ft 0 kts 351°
2026-05-06 17:38 60.30591 5.21716 180 ft 5 kts 350°
2026-05-06 17:38 60.30640 5.21669 181 ft 9 kts 313°
2026-05-06 17:38 60.30652 5.21611 181 ft 0 kts 281°
2026-05-06 17:40 60.30655 5.21511 182 ft 9 kts 266°
2026-05-06 17:40 60.30621 5.21417 183 ft 9 kts 202°
2026-05-06 17:40 60.30554 5.21413 181 ft 11 kts 173°
2026-05-06 17:41 60.30387 5.21464 177 ft 62 kts 171°
2026-05-06 17:41 60.29596 5.21726 172 ft 168 kts 171°
2026-05-06 17:41 60.28222 5.22140 486 ft 224 kts 173°
2026-05-06 17:41 60.26760 5.22608 2299 ft 203 kts 173°
2026-05-06 17:42 60.25319 5.23083 3211 ft 215 kts 173°
2026-05-06 17:42 60.23743 5.23600 3572 ft 246 kts 172°
2026-05-06 17:42 60.21981 5.24193 4255 ft 261 kts 172°
2026-05-06 17:42 60.20176 5.24807 5244 ft 265 kts 172°
2026-05-06 17:43 60.18343 5.25432 5903 ft 269 kts 172°
2026-05-06 17:43 60.16450 5.26076 5998 ft 275 kts 172°
2026-05-06 17:43 60.14557 5.26718 6010 ft 277 kts 172°
2026-05-06 17:43 60.12660 5.27255 6245 ft 274 kts 183°
2026-05-06 17:44 60.10848 5.26331 7121 ft 270 kts 212°
2026-05-06 17:44 60.09485 5.23862 8157 ft 265 kts 239°
2026-05-06 17:44 60.08837 5.20433 9118 ft 263 kts 266°
2026-05-06 17:44 60.08997 5.16809 10063 ft 264 kts 288°
2026-05-06 17:45 60.09801 5.13461 10738 ft 275 kts 300°
2026-05-06 17:45 60.10838 5.09983 10977 ft 304 kts 301°
2026-05-06 17:45 60.11996 5.06225 11234 ft 330 kts 301°
2026-05-06 17:45 60.13228 5.02245 11998 ft 340 kts 301°
2026-05-06 17:46 60.14479 4.98182 12965 ft 344 kts 301°
2026-05-06 17:46 60.15734 4.94077 13985 ft 347 kts 300°
2026-05-06 17:46 60.16996 4.89920 14945 ft 348 kts 300°
2026-05-06 17:46 60.18248 4.85771 15982 ft 347 kts 299°
2026-05-06 17:47 60.19496 4.81613 16977 ft 348 kts 298°
2026-05-06 17:47 60.20743 4.77449 17942 ft 349 kts 298°
2026-05-06 17:47 60.21994 4.73253 18819 ft 350 kts 297°
2026-05-06 17:47 60.23247 4.69043 19599 ft 353 kts 297°
2026-05-06 17:48 60.24511 4.64787 20325 ft 356 kts 297°
2026-05-06 17:48 60.25784 4.60490 21092 ft 358 kts 296°
2026-05-06 17:48 60.27069 4.56147 21857 ft 361 kts 296°
2026-05-06 17:48 60.28352 4.51801 22616 ft 363 kts 296°
2026-05-06 17:49 60.29662 4.47356 23354 ft 366 kts 296°
2026-05-06 17:49 60.30965 4.42928 23981 ft 369 kts 296°
2026-05-06 17:49 60.32267 4.38491 24500 ft 374 kts 296°
2026-05-06 17:49 60.33597 4.33949 25007 ft 378 kts 296°
2026-05-06 17:50 60.34936 4.29373 25532 ft 383 kts 296°
2026-05-06 17:50 60.36298 4.24705 26043 ft 387 kts 296°
2026-05-06 17:50 60.37677 4.19974 26552 ft 392 kts 296°
2026-05-06 17:50 60.39065 4.15199 27060 ft 396 kts 296°
2026-05-06 17:51 60.40463 4.10382 27536 ft 401 kts 296°
2026-05-06 17:51 60.41883 4.05482 27986 ft 405 kts 296°
2026-05-06 17:51 60.43311 4.00544 28472 ft 410 kts 296°
2026-05-06 17:51 60.44759 3.95522 28948 ft 414 kts 296°
2026-05-06 17:52 60.46139 3.90384 29373 ft 416 kts 292°
2026-05-06 17:52 60.47304 3.85024 29758 ft 419 kts 290°
2026-05-06 17:52 60.48450 3.79543 30157 ft 423 kts 290°
2026-05-06 17:52 60.49597 3.74037 30562 ft 424 kts 290°
2026-05-06 17:53 60.50747 3.68518 30958 ft 426 kts 290°
2026-05-06 17:53 60.51904 3.62964 31355 ft 427 kts 290°
2026-05-06 17:53 60.53062 3.57410 31733 ft 429 kts 290°
2026-05-06 17:53 60.54227 3.51817 32110 ft 430 kts 290°
2026-05-06 17:54 60.55392 3.46213 32475 ft 432 kts 290°
2026-05-06 17:54 60.56560 3.40580 32832 ft 433 kts 290°
2026-05-06 17:54 60.57731 3.34917 33188 ft 435 kts 290°
2026-05-06 17:54 60.58916 3.29173 33559 ft 436 kts 290°
2026-05-06 17:55 60.60092 3.23456 33884 ft 438 kts 290°
2026-05-06 17:55 60.61255 3.17787 33964 ft 444 kts 290°
2026-05-06 17:55 60.63640 3.06111 34010 ft 442 kts 290°
2026-05-06 17:56 60.65977 2.94611 34020 ft 438 kts 290°
2026-05-06 17:56 60.68299 2.83112 34018 ft 438 kts 290°
2026-05-06 17:57 60.70614 2.71577 34022 ft 439 kts 290°
2026-05-06 17:57 60.72924 2.60005 34020 ft 440 kts 290°
2026-05-06 17:58 60.75228 2.48396 34016 ft 442 kts 290°
2026-05-06 17:58 60.77530 2.36731 34018 ft 442 kts 290°
2026-05-06 17:59 60.79809 2.25113 34018 ft 443 kts 289°
2026-05-06 17:59 60.82114 2.13296 34016 ft 444 kts 289°
2026-05-06 18:00 60.84394 2.01536 34019 ft 444 kts 289°
2026-05-06 18:00 60.86651 1.89822 34016 ft 444 kts 289°
2026-05-06 18:01 60.88930 1.77927 34020 ft 445 kts 289°
2026-05-06 18:01 60.91161 1.66212 34019 ft 445 kts 289°
2026-05-06 18:02 60.93426 1.54245 34017 ft 445 kts 289°
2026-05-06 18:02 60.95643 1.42464 34014 ft 445 kts 289°
2026-05-06 18:03 60.97868 1.30565 34017 ft 445 kts 289°
2026-05-06 18:03 61.00100 1.18556 34016 ft 446 kts 289°
2026-05-06 18:04 61.02292 1.06686 34007 ft 446 kts 289°
2026-05-06 18:04 61.04503 0.94641 34007 ft 446 kts 289°
2026-05-06 18:05 61.06695 0.82630 34013 ft 447 kts 289°
2026-05-06 18:05 61.08860 0.70684 34007 ft 447 kts 289°
2026-05-06 18:06 61.11046 0.58554 34012 ft 447 kts 289°
2026-05-06 18:06 61.13209 0.46468 34008 ft 448 kts 289°
2026-05-06 18:07 61.15345 0.34460 34007 ft 448 kts 289°
2026-05-06 18:07 61.17486 0.22349 34011 ft 448 kts 289°
2026-05-06 18:08 61.19618 0.10217 34008 ft 448 kts 289°
2026-05-06 18:08 61.21806 -0.01873 34007 ft 448 kts 292°
2026-05-06 18:09 61.24496 -0.13553 34012 ft 448 kts 294°
2026-05-06 18:09 61.27226 -0.25180 34008 ft 449 kts 294°
2026-05-06 18:10 61.29942 -0.36870 34008 ft 449 kts 294°
2026-05-06 18:10 61.32635 -0.48596 34009 ft 448 kts 294°
2026-05-06 18:11 61.34860 -0.58349 34011 ft 448 kts 294°
2026-05-06 18:11 61.37974 -0.72083 34008 ft 448 kts 294°
2026-05-06 18:12 61.40623 -0.83838 34011 ft 448 kts 294°
2026-05-06 18:12 61.43266 -0.95627 34009 ft 448 kts 294°
2026-05-06 18:13 61.45453 -1.05431 34009 ft 448 kts 294°
2026-05-06 18:13 61.48513 -1.19228 34007 ft 448 kts 293°
2026-05-06 18:14 61.50683 -1.29062 34010 ft 447 kts 293°
2026-05-06 18:14 61.53284 -1.40913 34008 ft 447 kts 293°
2026-05-06 18:15 61.55869 -1.52760 34016 ft 447 kts 293°
2026-05-06 18:15 61.58446 -1.64635 34013 ft 447 kts 293°
2026-05-06 18:16 61.61012 -1.76529 34012 ft 447 kts 293°
2026-05-06 18:16 61.63568 -1.88443 34009 ft 447 kts 293°
2026-05-06 18:17 61.66115 -2.00381 34013 ft 447 kts 293°
2026-05-06 18:17 61.68652 -2.12344 33998 ft 447 kts 292°
2026-05-06 18:18 61.71195 -2.24401 34005 ft 448 kts 292°
2026-05-06 18:18 61.73698 -2.36343 34004 ft 448 kts 292°
2026-05-06 18:19 61.76204 -2.48362 34014 ft 448 kts 292°
2026-05-06 18:19 61.78701 -2.60415 34028 ft 448 kts 292°
2026-05-06 18:20 61.81188 -2.72482 34030 ft 448 kts 292°
2026-05-06 18:20 61.83664 -2.84574 34019 ft 448 kts 292°
2026-05-06 18:21 61.86130 -2.96685 34016 ft 448 kts 292°
2026-05-06 18:21 61.88582 -3.08814 34016 ft 448 kts 292°
2026-05-06 18:22 61.91028 -3.20966 34030 ft 448 kts 292°
2026-05-06 18:22 61.93464 -3.33140 34021 ft 448 kts 292°
2026-05-06 18:23 61.95887 -3.45326 34017 ft 448 kts 291°
2026-05-06 18:23 61.98301 -3.57542 34022 ft 448 kts 291°
2026-05-06 18:24 62.00708 -3.69799 34020 ft 449 kts 291°
2026-05-06 18:24 62.03105 -3.82079 34022 ft 449 kts 291°
2026-05-06 18:25 62.05489 -3.94370 34021 ft 449 kts 291°
2026-05-06 18:25 62.07865 -4.06690 34025 ft 449 kts 291°
2026-05-06 18:26 62.10232 -4.19045 34020 ft 450 kts 291°
2026-05-06 18:26 62.12589 -4.31423 34031 ft 450 kts 291°
2026-05-06 18:27 62.14934 -4.43813 34028 ft 450 kts 291°
2026-05-06 18:27 62.17257 -4.56165 34027 ft 450 kts 291°
2026-05-06 18:28 62.19598 -4.68690 34027 ft 450 kts 290°
2026-05-06 18:28 62.21899 -4.81083 34026 ft 451 kts 290°
2026-05-06 18:29 62.24203 -4.93568 34021 ft 451 kts 290°
2026-05-06 18:29 62.26501 -5.06102 34029 ft 451 kts 290°
2026-05-06 18:30 62.28787 -5.18652 34033 ft 451 kts 290°
2026-05-06 18:30 62.31063 -5.31229 34030 ft 452 kts 290°
2026-05-06 18:31 62.33329 -5.43835 34032 ft 452 kts 290°
2026-05-06 18:31 62.35585 -5.56462 34031 ft 452 kts 290°
2026-05-06 18:32 62.37833 -5.69129 34029 ft 453 kts 290°
2026-05-06 18:32 62.40069 -5.81816 34031 ft 453 kts 290°
2026-05-06 18:33 62.42297 -5.94540 34034 ft 453 kts 290°
2026-05-06 18:33 62.44512 -6.07272 34040 ft 454 kts 289°
2026-05-06 18:34 62.46720 -6.20055 34035 ft 454 kts 289°
2026-05-06 18:34 62.48916 -6.32853 34036 ft 454 kts 289°
2026-05-06 18:35 62.51102 -6.45679 34039 ft 454 kts 289°
2026-05-06 18:35 62.53275 -6.58516 34039 ft 454 kts 289°
2026-05-06 18:36 62.55440 -6.71392 34035 ft 455 kts 289°
2026-05-06 18:36 62.57592 -6.84287 34036 ft 455 kts 289°
2026-05-06 18:37 62.59734 -6.97209 34040 ft 455 kts 289°
2026-05-06 18:37 62.61866 -7.10158 34035 ft 455 kts 289°
2026-05-06 18:38 62.63984 -7.23115 34034 ft 455 kts 289°
2026-05-06 18:38 62.66092 -7.36106 34036 ft 456 kts 289°
2026-05-06 18:39 62.68189 -7.49120 34038 ft 456 kts 288°
2026-05-06 18:40 62.71316 -7.68701 34045 ft 456 kts 288°
2026-05-06 18:40 62.73371 -7.81683 34042 ft 456 kts 288°
2026-05-06 18:40 62.74403 -7.88237 33883 ft 460 kts 288°
2026-05-06 18:41 62.75464 -7.94980 33435 ft 462 kts 288°
2026-05-06 18:41 62.76487 -8.01489 33140 ft 451 kts 288°
2026-05-06 18:41 62.77486 -8.07899 33454 ft 446 kts 288°
2026-05-06 18:41 62.78483 -8.14345 33725 ft 449 kts 288°
2026-05-06 18:42 62.79482 -8.20829 33912 ft 455 kts 288°
2026-05-06 18:42 62.81524 -8.34146 34026 ft 464 kts 288°
2026-05-06 18:43 62.83575 -8.47600 34043 ft 464 kts 288°
2026-05-06 18:43 62.85619 -8.61158 32613 ft 477 kts 287°
2026-05-06 18:43 62.86617 -8.67832 32984 ft 449 kts 287°
2026-05-06 18:44 62.87581 -8.74246 33250 ft 440 kts 287°
2026-05-06 18:44 62.88540 -8.80634 33527 ft 445 kts 287°
2026-05-06 18:44 62.89508 -8.87118 33759 ft 450 kts 287°
2026-05-06 18:44 62.90478 -8.93646 33907 ft 457 kts 287°
2026-05-06 18:45 62.91470 -9.00351 33989 ft 463 kts 287°
2026-05-06 18:45 62.93449 -9.13826 34037 ft 464 kts 287°
2026-05-06 18:46 62.95416 -9.27326 34057 ft 464 kts 287°
2026-05-06 18:46 62.97368 -9.40831 34063 ft 464 kts 287°
2026-05-06 18:47 62.99306 -9.54350 34065 ft 466 kts 287°
2026-05-06 18:47 63.01242 -9.67963 34061 ft 467 kts 287°
2026-05-06 18:48 63.03164 -9.81582 34062 ft 464 kts 287°
2026-05-06 18:48 63.05072 -9.95220 34064 ft 466 kts 287°
2026-05-06 18:49 63.06961 -10.08826 34066 ft 464 kts 287°
2026-05-06 18:49 63.08841 -10.22486 34061 ft 464 kts 286°
2026-05-06 18:50 63.10709 -10.36169 34082 ft 467 kts 286°
2026-05-06 18:50 63.12559 -10.49836 34067 ft 463 kts 286°
2026-05-06 18:51 63.14385 -10.63439 34074 ft 460 kts 286°
2026-05-06 18:51 63.16192 -10.77006 34073 ft 460 kts 286°
2026-05-06 18:52 63.17978 -10.90540 34079 ft 461 kts 286°
2026-05-06 18:52 63.19762 -11.04167 34077 ft 461 kts 286°
2026-05-06 18:53 63.21530 -11.17793 34076 ft 459 kts 286°
2026-05-06 18:53 63.23282 -11.31413 34079 ft 459 kts 285°
2026-05-06 18:54 63.25023 -11.45061 34075 ft 460 kts 285°
2026-05-06 18:54 63.26752 -11.58738 34082 ft 461 kts 285°
2026-05-06 18:55 63.28472 -11.72456 34084 ft 462 kts 285°
2026-05-06 18:55 63.30195 -11.86325 34088 ft 470 kts 285°
2026-05-06 18:56 63.31913 -12.00283 34077 ft 465 kts 285°
2026-05-06 18:56 63.33340 -12.11975 34111 ft 471 kts 285°
2026-05-06 18:57 63.35042 -12.26037 34083 ft 468 kts 285°
2026-05-06 18:57 63.36725 -12.40081 34092 ft 469 kts 285°
2026-05-06 18:58 63.38405 -12.54222 34098 ft 470 kts 285°
2026-05-06 18:58 63.40062 -12.68305 34094 ft 468 kts 285°
2026-05-06 18:59 63.41693 -12.82299 34096 ft 469 kts 285°
2026-05-06 18:59 63.43320 -12.96399 34104 ft 468 kts 285°
2026-05-06 19:00 63.44942 -13.10591 34119 ft 471 kts 285°
2026-05-06 19:00 63.46548 -13.24778 34096 ft 467 kts 285°
2026-05-06 19:01 63.48132 -13.38900 34102 ft 469 kts 285°
2026-05-06 19:01 63.49713 -13.53143 34119 ft 475 kts 284°
2026-05-06 19:02 63.51270 -13.67339 34102 ft 468 kts 284°
2026-05-06 19:02 63.52803 -13.81445 34119 ft 467 kts 284°
2026-05-06 19:03 63.54345 -13.95755 34125 ft 477 kts 284°
2026-05-06 19:03 63.55871 -14.10076 34117 ft 468 kts 284°
2026-05-06 19:04 63.57372 -14.24317 34135 ft 474 kts 284°
2026-05-06 19:04 63.58885 -14.38817 34113 ft 474 kts 284°
2026-05-06 19:05 63.60350 -14.53027 34131 ft 462 kts 284°
2026-05-06 19:05 63.61770 -14.66942 34131 ft 454 kts 283°
2026-05-06 19:06 63.63180 -14.80884 34140 ft 460 kts 283°
2026-05-06 19:06 63.64581 -14.94886 34137 ft 459 kts 284°
2026-05-06 19:07 63.65972 -15.08942 34135 ft 459 kts 284°
2026-05-06 19:07 63.67344 -15.22984 34145 ft 459 kts 283°
2026-05-06 19:08 63.68701 -15.37021 34143 ft 459 kts 283°
2026-05-06 19:08 63.70051 -15.51118 34136 ft 458 kts 284°
2026-05-06 19:09 63.71387 -15.65224 34150 ft 463 kts 283°
2026-05-06 19:09 63.72715 -15.79422 34143 ft 461 kts 283°
2026-05-06 19:10 63.74026 -15.93597 34150 ft 463 kts 283°
2026-05-06 19:10 63.75326 -16.07804 34149 ft 462 kts 283°
2026-05-06 19:11 63.76617 -16.22093 34150 ft 465 kts 283°
2026-05-06 19:11 63.77890 -16.36351 34141 ft 462 kts 283°
2026-05-06 19:12 63.79153 -16.50641 34143 ft 463 kts 283°
2026-05-06 19:12 63.80374 -16.64957 34151 ft 465 kts 280°
2026-05-06 19:13 63.81168 -16.79503 34152 ft 466 kts 278°
2026-05-06 19:13 63.81863 -16.94080 34141 ft 466 kts 278°
2026-05-06 19:14 63.82556 -17.08654 34149 ft 470 kts 278°
2026-05-06 19:14 63.83262 -17.23437 34155 ft 474 kts 278°
2026-05-06 19:15 63.83968 -17.38378 34161 ft 480 kts 278°
2026-05-06 19:15 63.84663 -17.53469 34158 ft 482 kts 277°
2026-05-06 19:16 63.85341 -17.68545 34149 ft 478 kts 277°
2026-05-06 19:16 63.85996 -17.83477 34149 ft 475 kts 277°
2026-05-06 19:17 63.86628 -17.98220 33664 ft 464 kts 277°
2026-05-06 19:17 63.86932 -18.05458 33184 ft 459 kts 277°
2026-05-06 19:17 63.87230 -18.12627 32687 ft 454 kts 277°
2026-05-06 19:17 63.87520 -18.19703 32265 ft 448 kts 277°
2026-05-06 19:18 63.87801 -18.26643 32160 ft 434 kts 277°
2026-05-06 19:18 63.88335 -18.40051 32164 ft 424 kts 277°
2026-05-06 19:19 63.88857 -18.53363 32172 ft 425 kts 277°
2026-05-06 19:19 63.89369 -18.66762 32185 ft 426 kts 277°
2026-05-06 19:20 63.89868 -18.80195 32181 ft 427 kts 277°
2026-05-06 19:20 63.90354 -18.93646 32181 ft 427 kts 277°
2026-05-06 19:21 63.90826 -19.07098 32188 ft 427 kts 277°
2026-05-06 19:21 63.91287 -19.20516 32182 ft 426 kts 277°
2026-05-06 19:22 63.91735 -19.33920 32192 ft 424 kts 277°
2026-05-06 19:22 63.92167 -19.47278 32187 ft 423 kts 277°
2026-05-06 19:23 63.92587 -19.60602 32189 ft 423 kts 277°
2026-05-06 19:23 63.92992 -19.73858 32190 ft 423 kts 277°